This demonstration page uses our WeatherBlox Daily Observations layout. Learn more.

Left ArrowRight Arrow

39.12711, -84.51439

Hourly Observations for April 9, 2018

Temp ( °F °C ) Dew Point ( °F °C ) Humidity (%) Winds ( mph kmh ) Pressure ( in mb ) Visibility ( mi km ) Precip ( " mm )
12:53 am 00:53 Cloudy 40 4.4 21 -6.1 47 47 E 6 9 30.06 1018 10 16 0.00 0.00
1:53 am 01:53 Cloudy with Light Snow 36 2.2 28 -2.2 73 73 SSW 8 13 30.11 1020 8 13 0.00 0.03
2:24 am 02:24 Cloudy with Light Snow 35 1.7 30 -1.1 82 82 ESE 6 9 30.12 1020 3 4 0.00 0.03
2:38 am 02:38 Cloudy with Light Snow 34 1.1 31 -0.6 89 89 ESE 3 6 30.12 1020 2 3 0.00 0.03
2:50 am 02:50 Cloudy with Light Snow 34 1 32 0 93 93 ESE 5 7 30.12 1020 3 4 0.00 0.03
2:53 am 02:53 Cloudy with Light Snow 33 0.6 32 0 96 96 ESE 3 6 30.12 1020 2 3 0.00 0.03
3:02 am 03:02 Cloudy with Light Snow 33 0.6 32 0 96 96 ESE 3 6 30.15 1021 1 2 0.01 0.25
3:19 am 03:19 Cloudy with Light Snow 33 0.6 33 0.6 100 100 Calm 30.15 1021 1 2 0.02 0.51
3:53 am 03:53 Cloudy with Light Snow 33 0.6 32 0 96 96 ENE 5 7 30.11 1020 2 2 0.03 0.76
4:01 am 04:01 Cloudy with Light Snow 33 0.6 32 0 96 96 ENE 5 7 30.09 1019 2 2 0.01 0.25
4:53 am 04:53 Cloudy with Light Snow 33 0.6 32 0 96 96 NE 6 9 30.09 1019 3 5 0.02 0.51
5:06 am 05:06 Cloudy with Light Snow 33 0.6 32 0 96 96 NE 6 9 30.09 1019 2 3 0.00 0.03
5:28 am 05:28 Cloudy with Light Snow 33 0.6 32 0 96 96 ENE 6 9 30.09 1019 3 5 0.00 0.03
5:53 am 05:53 Cloudy 33 0.6 32 0 96 96 ENE 6 9 30.07 1018 9 14 0.00 0.03
6:30 am 06:30 Cloudy 33 0.6 32 0 96 96 ENE 6 9 30.06 1018 10 16 0.00 0.03
6:53 am 06:53 Cloudy 33 0.6 32 0 96 96 NE 5 7 30.09 1019 9 14 0.00 0.03
7:53 am 07:53 Cloudy 34 1.1 32 0 92 92 Calm 30.09 1019 10 16 0.00 0.00
8:53 am 08:53 Cloudy 35 1.7 32 0 89 89 ENE 5 7 30.11 1020 10 16 0.00 0.00
9:53 am 09:53 Cloudy 36 2.2 32 0 86 86 ESE 5 7 30.12 1020 10 16 0.00 0.00
10:00 am 10:00 Cloudy 36 2.2 32 0 86 86 VRB 3 6 30.12 1020 10 16 0.00 0.00
10:53 am 10:53 Cloudy 37 2.8 33 0.6 86 86 Calm 30.14 1021 10 16 0.00 0.00
11:53 am 11:53 Cloudy 38 3.3 33 0.6 83 83 SW 5 7 30.14 1021 10 16 0.00 0.00
12:53 pm 12:53 Cloudy 40 4.4 34 1.1 79 79 VRB 5 7 30.14 1021 10 16 0.00 0.00
1:53 pm 13:53 Cloudy 42 5.6 34 1.1 73 73 NW 6 9 30.14 1021 10 16 0.00 0.00
2:53 pm 14:53 Cloudy 42 5.6 32 0 68 68 W 8 13 30.14 1021 10 16 0.00 0.00
3:53 pm 15:53 Cloudy 42 5.6 32 0 68 68 NNW 8 13 30.15 1021 10 16 0.00 0.00
4:00 pm 16:00 Cloudy 42 5.6 32 0 68 68 VRB 5 7 30.15 1021 10 16 0.00 0.00
4:53 pm 16:53 Cloudy 42 5.6 31 -0.6 65 65 NNW 6 9 30.16 1021 10 16 0.00 0.00
5:53 pm 17:53 Cloudy 42 5.6 32 0 68 68 NW 5 7 30.18 1022 10 16 0.00 0.00
6:53 pm 18:53 Cloudy 43 6.1 32 0 65 65 N 5 7 30.18 1022 10 16 0.00 0.00
7:53 pm 19:53 Cloudy 41 5 32 0 70 70 NNE 6 9 30.19 1022 10 16 0.00 0.00
8:53 pm 20:53 Cloudy 41 5 32 0 70 70 N 5 7 30.21 1023 10 16 0.00 0.00
9:53 pm 21:53 Cloudy 40 4.4 31 -0.6 70 70 Calm 30.25 1024 10 16 0.00 0.00
10:53 pm 22:53 Cloudy 40 4.4 32 0 73 73 Calm 30.26 1025 10 16 0.00 0.00
11:53 pm 23:53 Cloudy 40 4.4 31 -0.6 70 70 N 5 7 30.26 1025 10 16 0.00 0.00

Powered by AerisWeather